Regional Weather Roundup
Issued by NWS

Home | Current Version | Previous Version | Graphics & Text | Print | Product List | Glossary On
Versions: 1 2 3 4 5 6 7 8 9 10 11 12 13 14 15 16 17 18 19 20 21 22 23 24 25 26 27 28 29 30 31 32 33 34 35 36 37 38 39 40 41 42 43 44 45 46 47 48 49 50
000
ASUS43 KOAX 261002
RWRNE

WEATHER ROUNDUP FOR NEBRASKA
NATIONAL WEATHER SERVICE OMAHA NE
500 AM CDT SAT JUL 26 2014

NOTES: SATELLITE DATA IS BEING USED TO AUGMENT CLOUD COVER ABOVE
       12000 FEET.
       "FAIR" INDICATES FEW OR NO CLOUDS BELOW 12,000 FEET WITH NO
       SIGNIFICANT WEATHER AND/OR OBSTRUCTIONS TO VISIBILITY.

  * THESE STATIONS DO NOT REPORT WEATHER SUCH AS RAIN...SNOW OR FOG.

NEZ001>004-019>022-054>056-261100-
NEBRASKA PANHANDLE

CITY           SKY/WX    TMP DP  RH WIND       PRES   REMARKS
SCOTTSBLUFF    CLEAR     65  55  70 W12       29.95R
ALLIANCE       CLEAR     62  54  74 W6        29.92R
CHADRON        CLEAR     62  52  69 W8        29.92R
KIMBALL        CLEAR     62  53  71 W8        30.01S
SIDNEY         CLEAR     64  53  67 W8        30.00R
$$

NEZ057>060-069>072-079>082-261100-
SOUTHWEST NEBRASKA

CITY           SKY/WX    TMP DP  RH WIND       PRES   REMARKS
NORTH PLATTE   CLEAR     72  66  81 SE3       29.88F
IMPERIAL       PTCLDY    70  63  78 W6        29.91F
LEXINGTON      MOCLDY    72  69  90 CALM      29.86F
MCCOOK         CLOUDY    70  66  87 NW6       29.86F
OGALLALA       CLEAR     64  62  91 W7        29.91S
$$

NEZ005>010-023>029-035>040-094-261100-
NORTH CENTRAL NEBRASKA

CITY           SKY/WX    TMP DP  RH WIND       PRES   REMARKS
VALENTINE      LGT RAIN  70  68  93 SE15      29.86S
AINSWORTH      CLOUDY    69  68  98 SE8       29.88R FOG
BROKEN BOW     PTCLDY    68  66  93 NE3       29.89R
O`NEILL        MOCLDY    70  67  89 S7        29.85R FOG
ORD            MOCLDY    71  70  96 SW3       29.86R FOG
THEDFORD       CLEAR     68  67  97 SE7       29.90F
$$

NEZ041-046>049-061>064-073>077-083>087-261100-
SOUTH CENTRAL NEBRASKA

CITY           SKY/WX    TMP DP  RH WIND       PRES   REMARKS
GRAND ISLAND   CLOUDY    74  72  93 CALM      29.85R FOG
AURORA         CLOUDY    75  75 100 NW3       29.84R FOG
HASTINGS       CLOUDY    74  69  85 W9        29.86R HAZE
HEBRON         CLOUDY    74  71  88 CALM      29.78F FOG
HOLDREGE       CLOUDY    71  68  91 NE3       29.84F
KEARNEY *      MOCLDY    73  70  88 S6        29.86F
YORK           FOG       75  75 100 NE7       29.82R VSB 3/4
$$

NEZ011>018-030>034-042>045-261100-
NORTHEAST NEBRASKA

CITY           SKY/WX    TMP DP  RH WIND       PRES   REMARKS
NORFOLK        MOCLDY    72  70  93 S7        29.83S FOG
ALBION         MOCLDY    73  71  93 E3        29.84F FOG
BLAIR          MOCLDY    73  70  92 N3        29.82R
COLUMBUS *     CLOUDY    73  70  88 NE6       29.82F
FREMONT        CLOUDY    76  73  91 CALM      29.83R
WAYNE          MOCLDY    72  70  96 CALM      29.83R
$$

NEZ050>053-065>068-078-088>093-261100-
SOUTHEAST NEBRASKA

CITY           SKY/WX    TMP DP  RH WIND       PRES   REMARKS
LINCOLN        CLOUDY    77  73  87 E6        29.80S
OMAHA EPPLEY   MOCLDY    74  70  87 SE5       29.80F
BEATRICE       CLOUDY    75  73  95 E5        29.78F
FALLS CITY     MOCLDY    75  71  87 E3        29.78F
NEBRASKA CITY  CLOUDY    72  72 100 NE7       29.80F FOG
PLATTSMOUTH    CLOUDY    73  70  91 CALM      29.80F
$$

NEZ044-045-051>053-067-261100-
OMAHA AREA

CITY           SKY/WX    TMP DP  RH WIND       PRES   REMARKS
OMAHA EPPLEY   MOCLDY    74  70  87 SE5       29.80F
BLAIR          MOCLDY    73  70  92 N3        29.82R
FREMONT        CLOUDY    76  73  91 CALM      29.83R
MILLARD        CLOUDY    75  72  89 CALM      29.79S
OFFUTT AFB     CLOUDY    72  72 100 NE5       29.79F
PLATTSMOUTH    CLOUDY    73  70  91 CALM      29.80F
WAHOO          FAIR      74  71  90 N7        29.80F FOG
$$



USA.gov is the U.S. government's official web portal to all federal, state and local government web resources and services.